FW6739 Weather Reports


time (UTC)temp
F
wind
direction
speed
knots
gust
knots
rain 1hr
in
rain 24hr
in
rain mn
in
humidity
%
barometer
mb
20260507163632 83 0 7.8 20.9 0.00 0.00 0.00 75 999.7
20260507163122 83 338 7.0 20.9 0.00 0.00 0.00 74 999.7
20260507162612 84 0 7.8 17.4 0.00 0.00 0.00 73 999.6
20260507162102 84 293 9.6 14.8 0.00 0.00 0.00 73 999.4
20260507161552 84 0 8.7 14.8 0.00 0.00 0.00 74 999.8
20260507161043 84 23 4.3 19.1 0.00 0.00 0.00 74 999.8
20260507160022 84 23 7.8 12.2 0.00 0.00 0.00 75 999.9
20260507155512 83 315 6.1 13.9 0.00 0.00 0.00 76 1000.3
20260507155001 82 338 7.0 13.9 0.00 0.00 0.00 77 1000.5
20260507154451 82 23 6.1 12.2 0.00 0.00 0.00 76 1000.5
20260507153941 83 23 3.5 11.3 0.00 0.00 0.00 75 1001.0
20260507153431 84 315 4.3 13.0 0.00 0.00 0.00 72 1001.0
20260507152921 83 45 5.2 13.0 0.00 0.00 0.00 74 1001.2
20260507152410 84 45 4.3 9.6 0.00 0.00 0.00 72 1001.0
20260507151901 84 23 4.3 9.6 0.00 0.00 0.00 74 1001.0
20260507151351 83 338 3.5 9.6 0.00 0.00 0.00 75 1001.5
20260507150840 82 45 5.2 9.6 0.00 0.00 0.00 76 1001.4
20260507150331 82 23 3.5 9.6 0.00 0.00 0.00 75 1001.2
20260507145821 82 338 3.5 9.6 0.00 0.00 0.00 75 1001.5
20260507145310 82 0 4.3 9.6 0.00 0.00 0.00 76 1001.5
20260507144800 81 23 6.1 9.6 0.00 0.00 0.00 76 1001.3
20260507144250 81 338 3.5 9.6 0.00 0.00 0.00 77 1001.3
20260507143740 81 45 3.5 7.8 0.00 0.00 0.00 77 1001.2
20260507143230 80 0 3.5 7.8 0.00 0.00 0.00 78 1001.3
20260507142719 80 23 3.5 9.6 0.00 0.00 0.00 78 1001.5
20260507142210 80 0 3.5 9.6 0.00 0.00 0.00 78 1001.5
20260507141659 80 23 3.5 9.6 0.00 0.00 0.00 78 1001.4
20260507141149 80 23 6.1 9.6 0.00 0.00 0.00 77 1001.5
20260507140129 81 338 2.6 12.2 0.00 0.00 0.00 77 1001.6
20260507135624 80 45 6.1 11.3 0.00 0.00 0.00 77 1001.6
20260507134559 81 45 5.2 12.2 0.00 0.00 0.00 76 1001.6
20260507134051 80 45 7.0 12.2 0.00 0.00 0.00 77 1002.0
20260507133539 80 68 6.1 12.2 0.00 0.00 0.00 77 1001.8
20260507133028 80 23 6.1 13.0 0.00 0.00 0.00 77 1001.9
20260507132519 80 45 7.0 13.0 0.00 0.00 0.00 77 1002.1
20260507132008 80 45 7.0 11.3 0.00 0.00 0.00 78 1001.8
20260507131458 80 45 5.2 12.2 0.00 0.00 0.00 78 1001.9
20260507130948 80 45 6.1 12.2 0.00 0.00 0.00 78 1001.8
20260507130518 80 23 7.8 13.9 0.00 0.00 0.00 77 1002.1
20260507125928 80 45 6.1 13.9 0.00 0.00 0.00 77 1001.9
20260507125417 80 68 7.0 13.0 0.00 0.00 0.00 77 1001.9
20260507124907 80 45 9.6 14.8 0.00 0.00 0.00 76 1002.2
20260507124357 80 45 7.8 14.8 0.00 0.00 0.00 76 1002.0
20260507123847 80 23 8.7 15.6 0.00 0.00 0.00 76 1002.1
20260507123337 80 45 7.0 15.6 0.00 0.00 0.00 75 1002.2
20260507122827 81 45 7.0 13.0 0.00 0.00 0.00 75 1002.4
20260507122317 81 45 5.2 11.3 0.00 0.00 0.00 75 1002.4
20260507121257 80 45 4.3 12.2 0.00 0.00 0.00 76 1002.4
20260507120747 79 45 5.2 12.2 0.00 0.00 0.00 77 1002.5
20260507120237 79 45 3.5 9.6 0.00 0.00 0.00 77 1002.7
20260507115726 79 23 4.3 9.6 0.00 0.00 0.00 77 1002.5
20260507115216 79 45 6.1 11.3 0.00 0.00 0.00 77 1002.5
20260507114706 79 45 4.3 13.9 0.00 0.00 0.00 77 1002.4
20260507114156 79 23 5.2 13.9 0.00 0.00 0.00 76 1002.4
20260507113136 79 23 5.2 13.0 0.00 0.00 0.00 77 1002.3
20260507112626 79 45 8.7 12.2 0.00 0.00 0.00 77 1002.2
20260507112116 79 23 6.1 11.3 0.00 0.00 0.00 77 1002.1
20260507111606 79 0 6.1 13.9 0.00 0.00 0.00 76 1002.1
20260507110552 79 23 4.3 9.6 0.00 0.00 0.00 77 1002.4
20260507110035 79 0 7.0 11.3 0.00 0.00 0.00 77 1002.1
20260507105015 79 45 5.2 9.6 0.00 0.00 0.00 77 1002.6
20260507104512 79 45 7.0 13.0 0.00 0.00 0.00 77 1002.3
20260507103954 79 23 3.5 13.0 0.00 0.00 0.00 77 1002.4
20260507103445 79 23 3.5 9.6 0.00 0.00 0.00 77 1002.4
20260507102937 79 23 3.5 9.6 0.00 0.00 0.00 77 1002.2
20260507101914 79 45 3.5 9.6 0.00 0.00 0.00 77 1001.9
20260507101403 79 45 4.3 11.3 0.00 0.00 0.00 77 1001.7
20260507100854 79 0 5.2 11.3 0.00 0.00 0.00 77 1001.8
20260507095834 79 23 7.0 12.2 0.00 0.00 0.00 76 1001.7
20260507095324 79 0 4.3 12.2 0.00 0.00 0.00 76 1001.5
20260507094813 79 68 4.3 13.0 0.00 0.00 0.00 76 1001.6
20260507094303 79 45 7.0 15.6 0.00 0.00 0.00 76 1001.4
20260507093754 79 23 7.8 17.4 0.00 0.00 0.00 76 1001.4
20260507093243 79 23 7.8 17.4 0.00 0.00 0.00 76 1001.3
20260507092733 79 23 5.2 17.4 0.00 0.00 0.00 77 1000.8
20260507092223 79 45 3.5 17.4 0.00 0.00 0.00 76 1000.9
20260507091713 79 68 7.0 14.8 0.00 0.00 0.00 76 1000.9
20260507091202 79 23 7.8 14.8 0.00 0.00 0.00 76 1000.6
20260507090653 80 45 8.7 13.0 0.00 0.00 0.00 76 1000.6
20260507090142 80 23 7.0 19.1 0.00 0.00 0.00 76 1000.8
20260507085632 80 23 8.7 19.1 0.00 0.00 0.00 76 1000.8
20260507084613 80 45 7.0 18.2 0.00 0.00 0.00 76 1000.6
20260507084102 80 23 8.7 18.2 0.00 0.00 0.00 76 1000.7
20260507083551 80 23 6.1 17.4 0.00 0.00 0.00 76 1000.7
20260507083043 80 45 7.0 13.0 0.00 0.00 0.00 76 1000.9
20260507082532 80 23 7.0 13.0 0.00 0.00 0.00 77 1001.0
20260507082022 80 0 7.0 13.9 0.00 0.00 0.00 77 1001.2
20260507081513 80 23 7.8 13.9 0.00 0.00 0.00 78 1001.2
20260507081002 79 45 6.1 12.2 0.00 0.00 0.00 78 1001.1
20260507080451 79 45 6.1 15.6 0.00 0.00 0.00 78 1001.2
20260507075941 79 68 8.7 15.6 0.00 0.00 0.00 78 1001.3
20260507075430 79 45 7.8 12.2 0.00 0.00 0.00 80 1001.5
20260507074921 79 0 5.2 9.6 0.00 0.00 0.00 80 1001.4
20260507074410 79 23 4.3 9.6 0.00 0.00 0.00 81 1001.5
20260507073901 79 45 5.2 9.6 0.00 0.00 0.00 81 1001.5
20260507073351 78 45 3.5 9.6 0.00 0.00 0.00 81 1001.9
20260507072840 78 0 6.1 9.6 0.00 0.00 0.00 81 1001.6
20260507072330 78 45 5.2 9.6 0.00 0.00 0.00 81 1001.8
20260507071820 78 45 3.5 9.6 0.00 0.00 0.00 82 1001.8
20260507071311 78 45 4.3 9.6 0.00 0.00 0.00 82 1001.6
20260507070800 78 45 6.1 7.8 0.00 0.00 0.00 82 1002.0
20260507070250 78 45 3.5 7.0 0.00 0.00 0.00 82 1001.9
20260507065740 78 45 3.5 9.6 0.00 0.00 0.00 82 1002.0
20260507065229 78 45 3.5 9.6 0.00 0.00 0.00 82 1002.1
20260507064719 78 45 3.5 11.3 0.00 0.00 0.00 82 1002.0
20260507064210 78 23 3.5 11.3 0.00 0.00 0.00 82 1001.9
20260507063659 78 90 7.0 11.3 0.00 0.00 0.00 82 1002.0
20260507063149 79 45 6.1 11.3 0.00 0.00 0.00 81 1002.2
20260507062639 79 45 5.2 9.6 0.00 0.00 0.00 81 1001.9
20260507062129 79 0 6.1 13.0 0.00 0.00 0.00 81 1002.0
20260507061619 79 45 6.1 13.9 0.00 0.00 0.00 81 1002.0
20260507061109 79 23 7.0 13.9 0.00 0.00 0.00 81 1002.2
20260507060048 79 45 5.2 12.2 0.00 0.00 0.00 81 1002.4
20260507055538 79 45 7.0 13.0 0.00 0.00 0.00 81 1002.5
20260507055029 79 68 7.8 13.0 0.00 0.00 0.00 81 1002.5
20260507054518 79 45 6.1 11.3 0.00 0.00 0.00 81 1002.8
20260507054008 79 45 6.1 9.6 0.00 0.00 0.00 81 1002.7
20260507053458 79 45 3.5 9.6 0.00 0.00 0.00 81 1002.7
20260507052948 79 23 7.0 11.3 0.00 0.00 0.00 81 1002.9
20260507052438 79 45 7.0 11.3 0.00 0.00 0.00 80 1002.9
20260507051927 79 45 7.0 11.3 0.00 0.00 0.00 80 1002.8
20260507051417 79 68 6.1 9.6 0.00 0.00 0.00 81 1002.9
20260507050907 79 23 4.3 9.6 0.00 0.00 0.00 81 1003.0
20260507050354 79 45 7.0 0.0 0.00 0.00 0.00 81 1003.2
20260507050159 79 45 7.0 0.0 0.00 0.00 0.00 81 1003.3
20260507045028 79 68 5.2 12.2 0.00 0.00 0.00 81 1003.3
20260507042947 79 68 5.2 13.0 0.00 0.00 0.00 81 1003.4
20260507041927 79 45 6.1 13.9 0.00 0.00 0.00 81 1003.5
20260507041417 79 23 8.7 13.9 0.00 0.00 0.00 81 1003.5
20260507040907 79 23 9.6 13.9 0.00 0.00 0.00 81 1003.6
20260507035846 79 45 7.0 12.2 0.00 0.00 0.00 81 1003.6
20260507035336 79 45 7.8 13.0 0.00 0.00 0.00 81 1003.5
20260507034316 79 45 5.2 12.2 0.00 0.00 0.00 81 1003.7
20260507033806 79 68 4.3 12.2 0.00 0.00 0.00 80 1003.7
20260507033256 80 45 6.1 12.2 0.00 0.00 0.00 80 1003.8
20260507032745 80 45 7.0 13.0 0.00 0.00 0.00 80 1003.9
20260507032235 80 68 8.7 13.0 0.00 0.00 0.00 80 1004.0
20260507031216 79 45 5.2 11.3 0.00 0.00 0.00 80 1003.9
20260507030706 79 23 5.2 12.2 0.00 0.00 0.00 80 1003.8
20260507030155 79 68 5.2 12.2 0.00 0.00 0.00 80 1004.0
20260507025135 80 45 6.1 9.6 0.00 0.00 0.00 80 1004.1
20260507024625 80 23 5.2 9.6 0.00 0.00 0.00 80 1004.2
20260507023605 80 45 7.0 11.3 0.00 0.00 0.00 80 1003.9
20260507023055 80 68 6.1 13.0 0.00 0.00 0.00 80 1004.2
20260507022544 80 45 3.5 13.0 0.00 0.00 0.00 80 1004.3
20260507022034 80 45 7.0 13.0 0.00 0.00 0.00 80 1004.2
20260507021524 80 45 7.0 12.2 0.00 0.00 0.00 80 1004.4
20260507021014 80 45 7.0 12.2 0.00 0.00 0.00 80 1004.3
20260507015445 80 68 7.0 12.2 0.00 0.00 0.00 80 1004.5
20260507014934 80 23 7.0 12.2 0.00 0.00 0.00 79 1004.4
20260507014424 80 23 7.0 11.3 0.00 0.00 0.00 79 1004.4
20260507013914 80 45 7.8 11.3 0.00 0.00 0.00 79 1004.6
20260507013404 80 68 7.0 11.3 0.00 0.00 0.00 79 1004.4
20260507012853 80 68 7.0 12.2 0.00 0.00 0.00 80 1004.4
20260507012343 80 68 4.3 12.2 0.00 0.00 0.00 80 1004.5
20260507011833 80 68 7.0 9.6 0.00 0.00 0.00 79 1004.7
20260507011322 80 45 6.1 11.3 0.00 0.00 0.00 79 1004.6
20260507010815 80 45 6.1 12.2 0.00 0.00 0.00 79 1004.6
20260507010303 80 45 4.3 12.2 0.00 0.00 0.00 79 1004.6
20260507005753 81 45 7.8 11.3 0.00 0.00 0.00 79 1004.7
20260507005242 81 45 7.0 12.2 0.00 0.00 0.00 79 1004.8
20260507004733 81 45 5.2 13.0 0.00 0.00 0.00 79 1004.6
20260507004223 81 45 4.3 13.0 0.00 0.00 0.00 79 1004.7
20260507003712 80 23 6.1 11.3 0.00 0.00 0.00 79 1004.6
20260507002651 80 45 7.0 13.0 0.00 0.00 0.00 80 1004.7
20260507002141 80 23 4.3 13.0 0.00 0.00 0.00 80 1004.5
20260507001632 80 45 6.1 12.2 0.00 0.00 0.00 80 1004.4
20260507001121 80 68 7.0 13.0 0.00 0.00 0.00 80 1004.8
20260507000612 80 68 7.0 13.0 0.00 0.00 0.00 81 1004.7
20260506235552 80 45 8.7 13.0 0.00 0.00 0.00 80 1004.6
20260506235041 80 45 3.5 12.2 0.00 0.00 0.00 81 1004.8
20260506234531 80 23 7.0 12.2 0.00 0.00 0.00 80 1004.6
20260506234021 80 68 7.0 13.9 0.00 0.00 0.00 80 1004.4
20260506233511 81 45 7.0 14.8 0.00 0.00 0.00 79 1004.5
20260506233001 81 23 5.2 14.8 0.00 0.00 0.00 79 1004.5
20260506232451 81 68 8.7 13.9 0.00 0.00 0.00 79 1004.6
20260506231941 81 45 7.0 13.0 0.00 0.00 0.00 79 1004.8
20260506231430 81 23 8.7 13.9 0.00 0.00 0.00 79 1004.9
20260506230920 81 23 6.1 13.9 0.00 0.00 0.00 79 1005.1
20260506225900 81 45 6.1 12.2 0.00 0.00 0.00 79 1005.3
20260506224839 82 23 7.0 12.2 0.00 0.00 0.00 79 1005.1
20260506224330 82 23 4.3 12.2 0.00 0.00 0.00 78 1005.3
20260506223820 82 45 5.2 12.2 0.00 0.00 0.00 77 1005.2
20260506223310 82 45 7.8 12.2 0.00 0.00 0.00 77 1005.3
20260506222800 83 68 7.8 12.2 0.00 0.00 0.00 76 1005.0
20260506222249 82 45 4.3 11.3 0.00 0.00 0.00 76 1005.2
20260506221229 83 68 3.5 11.3 0.00 0.00 0.00 75 1005.2
20260506220719 83 45 7.0 11.3 0.00 0.00 0.00 75 1005.2
20260506220209 83 45 4.3 9.6 0.00 0.00 0.00 75 1005.1
20260506215659 83 23 6.1 9.6 0.00 0.00 0.00 75 1005.1
20260506214638 83 45 4.3 12.2 0.00 0.00 0.00 76 1005.4
20260506214128 83 45 4.3 13.9 0.00 0.00 0.00 75 1005.2
20260506213108 83 45 5.2 11.3 0.00 0.00 0.00 75 1005.1
20260506212558 83 45 4.3 9.6 0.00 0.00 0.00 75 1005.3
20260506212047 83 45 4.3 12.2 0.00 0.00 0.00 74 1005.4
20260506211537 83 68 7.0 12.2 0.00 0.00 0.00 74 1005.1
20260506211028 83 68 7.0 12.2 0.00 0.00 0.00 74 1005.2
20260506210008 83 68 7.0 13.0 0.00 0.00 0.00 74 1005.4
20260506205457 83 68 4.3 12.2 0.00 0.00 0.00 74 1005.6
20260506204947 83 45 7.0 12.2 0.00 0.00 0.00 73 1005.7
20260506204437 84 45 3.5 9.6 0.00 0.00 0.00 73 1005.7
20260506203927 84 68 5.2 11.3 0.00 0.00 0.00 73 1005.7
20260506203417 84 45 7.0 11.3 0.00 0.00 0.00 73 1005.8
20260506202907 84 68 3.5 13.9 0.00 0.00 0.00 73 1005.8
20260506201848 84 23 7.8 13.0 0.00 0.00 0.00 72 1005.6
20260506201336 85 68 3.5 11.3 0.00 0.00 0.00 73 1005.7
20260506200826 85 23 7.0 11.3 0.00 0.00 0.00 72 1005.6
20260506195807 85 45 7.0 12.2 0.00 0.00 0.00 73 1005.7
20260506195257 85 45 6.1 12.2 0.00 0.00 0.00 73 1006.0
20260506194745 85 45 3.5 9.6 0.00 0.00 0.00 72 1005.8
20260506194236 85 68 6.1 11.3 0.00 0.00 0.00 72 1005.8
20260506193215 85 45 6.1 13.9 0.00 0.00 0.00 72 1005.8
20260506192705 86 68 7.8 13.9 0.00 0.00 0.00 71 1005.9
20260506192155 86 68 8.7 13.0 0.00 0.00 0.00 70 1005.9
20260506191135 86 0 6.1 13.0 0.00 0.00 0.00 69 1005.8
20260506190625 87 45 5.2 13.9 0.00 0.00 0.00 69 1005.8
20260506190114 87 23 5.2 13.9 0.00 0.00 0.00 67 1006.0
20260506185604 87 23 3.5 13.9 0.00 0.00 0.00 67 1005.8
20260506185054 87 45 3.5 12.2 0.00 0.00 0.00 67 1005.6
20260506184544 86 68 6.1 13.9 0.00 0.00 0.00 67 1006.0
20260506184035 86 68 7.0 13.9 0.00 0.00 0.00 68 1006.1
20260506183524 86 45 7.8 13.9 0.00 0.00 0.00 67 1006.3
20260506181954 87 45 8.7 12.2 0.00 0.00 0.00 65 1006.5
20260506181443 88 45 5.2 13.9 0.00 0.00 0.00 64 1006.6
20260506180934 88 45 7.8 13.9 0.00 0.00 0.00 63 1006.5
20260506180423 89 23 9.6 13.0 0.00 0.00 0.00 63 1006.6
20260506175913 88 23 7.0 11.3 0.00 0.00 0.00 64 1006.8
20260506175404 89 45 4.3 13.9 0.00 0.00 0.00 63 1006.9
20260506174343 88 23 7.0 19.1 0.00 0.00 0.00 63 1007.0
20260506173832 88 23 7.0 13.9 0.00 0.00 0.00 64 1007.1
20260506173323 88 0 7.0 13.9 0.00 0.00 0.00 64 1007.4
20260506172813 88 23 7.0 12.2 0.00 0.00 0.00 65 1007.3
20260506172306 88 0 5.2 12.2 0.00 0.00 0.00 64 1007.4
20260506171752 89 315 5.2 11.3 0.00 0.00 0.00 62 1007.3
20260506171242 90 0 3.5 17.4 0.00 0.00 0.00 63 1007.6
20260506170732 89 23 5.2 17.4 0.00 0.00 0.00 62 1007.7
20260506170222 89 0 7.0 15.6 0.00 0.00 0.00 63 1007.6
20260506165712 89 45 7.0 15.6 0.00 0.00 0.00 63 1007.7
20260506165202 89 23 8.7 13.9 0.00 0.00 0.00 62 1008.0
20260506164652 89 45 7.8 15.6 0.00 0.00 0.00 63 1007.9